FW6820 Weather Reports


Display with metric or nautical units.
time (UTC)temp
F
wind
direction
speed
MPH
gust
MPH
rain 1hr
in
rain 24hr
in
rain mn
in
humidity
%
barometer
mb
20260505230039 90 134 12.0 21.0 0.00 0.00 0.00 66 1003.4
20260505224539 91 169 11.0 20.0 0.00 0.00 0.00 66 1003.5
20260505223045 91 126 15.0 22.0 0.00 0.00 0.00 65 1003.4
20260505221542 91 140 12.0 21.0 0.00 0.00 0.00 64 1003.5
20260505220042 91 121 11.0 21.0 0.00 0.00 0.00 65 1003.6
20260505214559 92 119 11.0 22.0 0.00 0.00 0.00 64 1003.7
20260505213056 93 135 9.0 17.0 0.00 0.00 0.00 63 1003.9
20260505211542 93 111 8.0 19.0 0.00 0.00 0.00 63 1003.9
20260505210041 93 140 12.0 19.0 0.00 0.00 0.00 62 1004.2
20260505204548 93 119 12.0 20.0 0.00 0.00 0.00 61 1004.3
20260505203046 94 114 8.0 19.0 0.00 0.00 0.00 61 1004.4
20260505201545 93 159 9.0 21.0 0.00 0.00 0.00 61 1004.5
20260505200052 93 101 9.0 20.0 0.00 0.00 0.00 61 1004.7
20260505194545 93 117 10.0 19.0 0.00 0.00 0.00 60 1004.8
20260505193040 93 107 9.0 16.0 0.00 0.00 0.00 60 1005.0
20260505191537 92 140 11.0 19.0 0.00 0.00 0.00 60 1005.3
20260505190042 92 108 10.0 17.0 0.00 0.00 0.00 61 1005.6
20260505184542 91 124 8.0 18.0 0.00 0.00 0.00 62 1005.8
20260505183041 91 142 10.0 20.0 0.00 0.00 0.00 62 1006.0
20260505181541 90 144 11.0 20.0 0.00 0.00 0.00 62 1006.4
20260505180104 89 133 9.0 20.0 0.00 0.00 0.00 63 1006.6
20260505174558 88 145 13.0 27.0 0.00 0.00 0.00 64 1006.8
20260505173045 88 127 14.0 23.0 0.00 0.00 0.00 64 1006.9
20260505171540 88 151 14.0 20.0 0.00 0.00 0.00 65 1006.9
20260505170038 87 136 11.0 22.0 0.00 0.00 0.00 66 1006.8
20260505164545 85 162 10.0 20.0 0.00 0.00 0.00 69 1007.2
20260505163041 84 146 12.0 22.0 0.00 0.00 0.00 70 1007.5
20260505161540 84 191 10.0 17.0 0.00 0.00 0.00 72 1007.6
20260505153043 83 124 12.0 24.0 0.00 0.00 0.00 74 1007.8
20260505151540 82 137 12.0 22.0 0.00 0.00 0.00 76 1007.6
20260505124540 76 163 9.0 18.0 0.00 0.00 0.00 86 1007.7
20260505123038 76 163 9.0 17.0 0.00 0.00 0.00 86 1007.6
20260505121536 76 174 7.0 13.0 0.00 0.00 0.00 86 1007.5
20260505120044 76 140 8.0 16.0 0.00 0.00 0.00 86 1007.5
20260505114540 76 170 9.0 18.0 0.00 0.00 0.00 86 1007.4
20260505113037 76 185 9.0 18.0 0.00 0.00 0.00 86 1007.6
20260505111538 76 130 10.0 23.0 0.00 0.00 0.00 86 1007.5
20260505101537 76 136 11.0 18.0 0.00 0.00 0.00 86 1007.5
20260505100044 76 136 10.0 18.0 0.00 0.00 0.00 86 1007.5
20260505094544 76 144 9.0 16.0 0.00 0.00 0.00 86 1007.6
20260505093041 76 138 9.0 16.0 0.00 0.00 0.00 86 1007.4
20260505091546 76 165 10.0 18.0 0.00 0.00 0.00 85 1007.6
20260505090044 76 133 9.0 15.0 0.00 0.00 0.00 85 1007.7
20260505084540 76 146 9.0 16.0 0.00 0.00 0.00 85 1007.8
20260505083039 76 142 10.0 15.0 0.00 0.00 0.00 84 1008.1
20260505081537 76 134 9.0 17.0 0.00 0.00 0.00 84 1008.3
20260505080050 76 153 9.0 17.0 0.00 0.00 0.00 84 1008.3
20260505074538 76 159 9.0 16.0 0.00 0.00 0.00 84 1008.7
20260505073043 76 149 7.0 15.0 0.00 0.00 0.00 84 1008.7
20260505071550 76 134 10.0 17.0 0.00 0.00 0.00 84 1008.5
20260505070049 76 166 8.0 14.0 0.00 0.00 0.00 85 1009.0
20260505064542 76 122 9.0 16.0 0.00 0.00 0.00 85 1009.4
20260505063051 76 137 7.0 12.0 0.00 0.00 0.00 85 1009.6
20260505061615 76 116 9.0 15.0 0.00 0.00 0.00 85 1009.4
20260505060048 75 141 8.0 15.0 0.00 0.00 0.00 85 1009.8
20260505054544 75 146 10.0 19.0 0.00 0.00 0.00 84 1009.9
20260505053044 75 115 9.0 15.0 0.00 0.00 0.00 84 1010.1
20260505051555 75 130 8.0 14.0 0.00 0.00 0.00 84 1010.1
20260505041543 76 143 9.0 16.0 0.00 0.00 0.00 81 1010.6
20260505040040 76 136 10.0 16.0 0.00 0.00 0.00 81 1010.3
20260505034541 76 120 9.0 18.0 0.00 0.00 0.00 81 1010.5
20260505033042 76 105 9.0 15.0 0.00 0.00 0.00 80 1010.4
20260505031539 76 148 11.0 20.0 0.00 0.00 0.00 79 1010.3
20260505030040 77 133 9.0 16.0 0.00 0.00 0.00 78 1010.6
20260505024548 77 148 10.0 18.0 0.00 0.00 0.00 78 1010.2
20260505023040 77 119 9.0 18.0 0.00 0.00 0.00 78 1010.1
20260505021544 77 142 9.0 16.0 0.00 0.00 0.00 78 1009.9
20260505020040 77 135 11.0 19.0 0.00 0.00 0.00 78 1009.7
20260505014539 77 133 8.0 17.0 0.00 0.00 0.00 77 1009.4
20260505013034 78 132 10.0 17.0 0.00 0.00 0.00 76 1009.5
20260505011539 79 123 9.0 17.0 0.00 0.00 0.00 74 1009.3
20260505010053 79 123 10.0 18.0 0.00 0.00 0.00 74 1009.5
20260505004538 80 140 12.0 18.0 0.00 0.00 0.00 72 1009.4
20260505003038 80 148 8.0 17.0 0.00 0.00 0.00 72 1009.4
20260505001536 81 134 10.0 18.0 0.00 0.00 0.00 70 1009.5
20260505000046 81 137 12.0 22.0 0.00 0.00 0.00 70 1009.7
20260504234540 81 140 10.0 17.0 0.00 0.00 0.00 69 1009.6
20260504233047 82 125 10.0 17.0 0.00 0.00 0.00 69 1009.6
20260504231543 82 111 9.0 22.0 0.00 0.00 0.00 69 1009.9